{"data":{"norad_id":58001,"epoch":"2026-09-19T21:47:20.385312Z","epoch_age_seconds":188843,"freshness":"STALE","line1":"1 58001U 23153L   26262.90787483  .00000259  00000+0  18922-4 0  9993","line2":"2 58001  43.0021  49.8587 0001381 271.2304  88.8389 15.27577255164606","mean_motion":15.27577255,"eccentricity":0.0001381,"inclination_deg":43.0021,"raan_deg":49.8587,"arg_perigee_deg":271.2304,"mean_anomaly_deg":88.8389,"bstar":1.8922e-5,"rev_number":16460,"period_min":94.266918107523,"perigee_km":482.10978463449,"apogee_km":484.00484650445,"semimajor_km":6861.1943155695,"source":"CELESTRAK","updated_at":"2026-09-21T09:00:33.755042Z"}}